Tracking 19827 objects as of 21-Aug-2019
HD Live streaming from Space Station
objects crossing your sky now

FENGYUN 1C DEB

Track FENGYUN 1C DEB now!
10-day predictions


NORAD ID: 30017
Int'l Code: 1999-025MS
Perigee: 548.1 km
Apogee: 880.0 km
Inclination: 98.7 °
Period: 98.9 minutes
Semi major axis: 7085 km
RCS: 0.0357 m2 (small)
Launch date: May 10, 1999
Source: People's Republic of China (PRC)
Launch site: Taiyaun Space Center, China (TSC)

Note: This is SATELLITE DEBRIS
aabbcc
Your satellite tracking list
Your tracking list is empty




NASA's NSSDC Master Catalog

Two Line Element Set (TLE):
1 30017U 99025MS  19233.21042872  .00000004  00000-0  10965-4 0  9999
2 30017  98.6834 130.6683 0234212  34.6954 326.9269 14.55749165668771
Source of the keplerian elements: AFSPC